Location: Calmejanne
(44.7523°N, 1.9418°E)
Time: 07:45:05
(UTC+00:00)

Cosmos-2242 - Pass Details

Date: 14 May 2026
Orbit: 565 x 588 km, 82.5° (Epoch: 6 June)

Event Time Altitude Azimuth Distance (km) Brightness Sun altitude
Exits shadow 23:10:18 28° 278° (W) 1,094 4.4 -25.8°
Maximum altitude 23:10:36 28° 286° (WNW) 1,086 4.5 -25.8°
Drops below altitude 10° 23:14:10 10° 346° (NNW) 1,874 6.6 -25.9°
Sets 23:16:37 0° 359° (N) 2,775 7.7 -26.0°
